Location: Narrabri
(30.3170°S, 149.7830°E)
Time: 19:13:45
(UTC+11:00)

Vanguard 2 - Visible Passes

Search period start: 19 February 2018 00:00
Search period end: 01 March 2018 00:00
Orbit: 553 x 2939 km, 32.9° (Epoch: 18 February)

Date Brightness Start Highest point End Pass type
(mag) Time Alt. Az. Time Alt. Az. Time Alt. Az.
19 Feb 10.2 04:02:28 14° NNE 04:04:22 16° NE 04:09:26 10° E visible
19 Feb 9.5 06:04:19 10° NW 06:12:09 61° NNE 06:25:24 10° ESE visible
20 Feb 9.8 04:19:44 21° NNE 04:21:48 24° NE 04:29:15 10° E visible
21 Feb 9.3 04:36:58 28° N 04:39:20 35° NE 04:48:20 10° E visible
22 Feb 9.0 04:54:11 32° NNW 04:57:02 48° NNE 05:07:06 10° ESE visible
23 Feb 10.5 03:09:57 11° ENE 03:09:57 11° ENE 03:10:46 10° ENE visible
23 Feb 8.8 05:11:23 31° NW 05:14:54 63° NNE 05:25:41 10° ESE visible
24 Feb 10.1 03:27:09 19° ENE 03:27:09 19° ENE 03:30:32 10° E visible
24 Feb 8.7 05:28:35 25° WNW 05:32:56 78° NNE 05:44:12 10° ESE visible
25 Feb 9.5 03:44:19 29° ENE 03:44:19 29° ENE 03:49:30 10° E visible
25 Feb 8.7 05:45:45 19° WNW 05:51:06 89° SSW 06:02:44 10° ESE visible
26 Feb 8.8 04:01:29 43° ENE 04:01:29 43° ENE 04:08:09 10° ESE visible
26 Feb 8.9 06:02:55 12° W 06:09:22 81° S 06:21:18 10° E visible
27 Feb 8.2 04:18:39 64° NE 04:18:39 64° NE 04:26:37 10° ESE visible
27 Feb 9.0 06:20:39 10° W 06:27:41 77° S 06:39:55 10° E visible
28 Feb 7.8 04:35:48 77° NW 04:36:16 83° NNE 04:45:04 10° ESE visible
